TimeEST,TemperatureF,Dew PointF,Humidity,Sea Level PressureIn,VisibilityMPH,Wind Direction,Wind SpeedMPH,Gust SpeedMPH,PrecipitationIn,Events,Conditions,WindDirDegrees,DateUTC
12:56 AM,50.0,38.8,66,29.98,8.0,SW,11.5,-,N/A,,Partly Cloudy,220,2012-11-23 05:56:00
1:56 AM,50.9,37.9,61,29.96,8.0,SW,15.0,-,N/A,,Scattered Clouds,220,2012-11-23 06:56:00
2:56 AM,50.9,37.9,61,29.95,8.0,SW,12.7,-,N/A,,Overcast,220,2012-11-23 07:56:00
3:04 AM,51.8,39.2,62,29.95,8.0,SW,12.7,-,N/A,,Overcast,220,2012-11-23 08:04:00
3:56 AM,52.9,38.8,59,29.93,8.0,SW,15.0,-,N/A,,Overcast,230,2012-11-23 08:56:00
4:56 AM,52.9,41.9,66,29.92,7.0,WSW,17.3,23.0,N/A,,Overcast,240,2012-11-23 09:56:00
5:56 AM,50.9,43.9,77,29.92,4.0,WSW,16.1,-,N/A,,Haze,250,2012-11-23 10:56:00
6:33 AM,48.2,46.4,93,29.92,2.5,WSW,12.7,-,0.01,,Overcast,240,2012-11-23 11:33:00
6:41 AM,48.2,46.4,93,29.93,5.0,WSW,15.0,-,0.01,,Overcast,240,2012-11-23 11:41:00
6:56 AM,48.9,46.9,93,29.93,4.0,WSW,15.0,-,0.01,,Overcast,250,2012-11-23 11:56:00
7:28 AM,48.2,42.8,82,29.93,7.0,West,13.8,24.2,N/A,,Overcast,280,2012-11-23 12:28:00
7:56 AM,45.9,37.9,74,29.96,7.0,WNW,13.8,20.7,N/A,,Mostly Cloudy,290,2012-11-23 12:56:00
8:32 AM,44.6,37.4,76,29.96,6.0,West,15.0,23.0,N/A,,Haze,280,2012-11-23 13:32:00
8:42 AM,42.8,33.8,70,29.97,7.0,West,15.0,-,N/A,,Mostly Cloudy,280,2012-11-23 13:42:00
8:56 AM,39.9,34.0,79,29.98,6.0,West,16.1,-,N/A,,Haze,270,2012-11-23 13:56:00
9:56 AM,39.9,32.9,76,29.99,6.0,West,20.7,27.6,N/A,,Haze,270,2012-11-23 14:56:00
10:56 AM,41.9,30.0,63,30.01,6.0,West,19.6,25.3,N/A,,Haze,270,2012-11-23 15:56:00
11:28 AM,42.8,30.2,61,29.99,7.0,West,23.0,-,N/A,,Mostly Cloudy,280,2012-11-23 16:28:00
11:56 AM,43.0,29.1,58,29.99,6.0,West,24.2,31.1,N/A,,Haze,260,2012-11-23 16:56:00
12:56 PM,39.9,26.1,58,29.99,7.0,West,21.9,35.7,N/A,,Mostly Cloudy,270,2012-11-23 17:56:00
1:56 PM,37.9,25.2,60,29.99,7.0,West,23.0,28.8,N/A,,Overcast,280,2012-11-23 18:56:00
2:56 PM,36.9,22.1,55,30.01,7.0,West,27.6,40.3,N/A,,Mostly Cloudy,270,2012-11-23 19:56:00
3:56 PM,34.0,22.1,62,30.05,7.0,WNW,25.3,33.4,N/A,,Overcast,290,2012-11-23 20:56:00
4:38 PM,32.0,21.2,64,30.07,7.0,WNW,23.0,31.1,N/A,,Overcast,300,2012-11-23 21:38:00
4:56 PM,31.1,21.0,66,30.10,7.0,WNW,16.1,29.9,N/A,,Overcast,300,2012-11-23 21:56:00
5:56 PM,30.0,19.0,64,30.13,8.0,WNW,20.7,29.9,N/A,,Overcast,290,2012-11-23 22:56:00
6:56 PM,29.1,18.1,64,30.16,8.0,WNW,17.3,25.3,N/A,,Overcast,300,2012-11-23 23:56:00
7:56 PM,28.0,18.1,66,30.18,8.0,NW,11.5,-,N/A,,Overcast,310,2012-11-24 00:56:00
8:56 PM,28.0,17.1,63,30.19,8.0,West,12.7,18.4,N/A,,Overcast,280,2012-11-24 01:56:00
9:29 PM,28.4,17.6,64,30.16,8.0,WNW,10.4,-,N/A,,Overcast,290,2012-11-24 02:29:00
9:56 PM,28.0,18.1,66,30.19,8.0,West,11.5,-,N/A,,Mostly Cloudy,270,2012-11-24 02:56:00
10:56 PM,27.1,17.1,66,30.18,8.0,West,13.8,-,N/A,,Overcast,280,2012-11-24 03:56:00
11:29 PM,26.6,17.6,69,30.15,8.0,West,11.5,-,N/A,,Overcast,280,2012-11-24 04:29:00
11:56 PM,27.1,17.1,66,30.17,8.0,West,11.5,-,N/A,,Overcast,260,2012-11-24 04:56:00